TimeEST,TemperatureF,Dew PointF,Humidity,Sea Level PressureIn,VisibilityMPH,Wind Direction,Wind SpeedMPH,Gust SpeedMPH,PrecipitationIn,Events,Conditions,WindDirDegrees,DateUTC
12:05 AM,28.4,26.6,93,29.77,4.0,East,18.4,28.8,N/A,Rain,Light Freezing Rain,90,2013-02-27 05:05:00
12:39 AM,30.2,28.4,93,29.76,4.0,East,17.3,28.8,N/A,Rain,Light Freezing Rain,90,2013-02-27 05:39:00
12:53 AM,30.0,28.9,96,29.81,4.0,East,19.6,31.1,N/A,Rain,Light Freezing Rain,90,2013-02-27 05:53:00
1:01 AM,30.2,28.4,93,29.76,4.0,East,17.3,28.8,N/A,Rain,Light Freezing Rain,90,2013-02-27 06:01:00
1:10 AM,30.2,28.4,93,29.76,4.0,East,19.6,27.6,N/A,Rain,Light Freezing Rain,90,2013-02-27 06:10:00
1:53 AM,30.9,28.9,92,29.77,-9999.0,East,23.0,33.4,N/A,Rain,Freezing Rain,100,2013-02-27 06:53:00
2:37 AM,30.2,30.2,100,29.70,2.0,East,17.3,27.6,N/A,Rain,Light Freezing Rain,90,2013-02-27 07:37:00
2:53 AM,30.9,30.0,96,29.75,2.5,East,15.0,26.5,N/A,Rain,Light Freezing Rain,100,2013-02-27 07:53:00
2:56 AM,30.2,30.2,100,29.69,3.0,East,18.4,27.6,N/A,Rain,Light Freezing Rain,90,2013-02-27 07:56:00
3:42 AM,32.0,30.2,93,29.65,2.5,East,20.7,28.8,N/A,Rain,Light Freezing Rain,90,2013-02-27 08:42:00
3:49 AM,32.0,30.2,93,29.64,4.0,East,24.2,34.5,N/A,Rain,Light Freezing Rain,100,2013-02-27 08:49:00
3:53 AM,32.0,30.0,92,29.69,3.0,East,19.6,34.5,N/A,Rain,Light Freezing Rain,90,2013-02-27 08:53:00
4:11 AM,32.0,30.2,93,29.63,2.5,East,17.3,34.5,N/A,Rain,Light Freezing Rain,90,2013-02-27 09:11:00
4:18 AM,32.0,30.2,93,29.63,3.0,East,19.6,26.5,N/A,Rain,Light Freezing Rain,90,2013-02-27 09:18:00
4:46 AM,32.0,30.2,93,29.61,2.5,East,18.4,29.9,N/A,Rain,Light Freezing Rain,90,2013-02-27 09:46:00
5:12 AM,32.0,30.2,93,29.59,1.8,East,19.6,31.1,N/A,Rain,Light Freezing Rain,100,2013-02-27 10:12:00
5:46 AM,32.0,30.2,93,29.58,-9999.0,East,18.4,31.1,N/A,Rain,Rain,90,2013-02-27 10:46:00
5:53 AM,32.0,30.9,96,29.63,1.2,East,24.2,34.5,N/A,Rain,Light Freezing Rain,100,2013-02-27 10:53:00
6:20 AM,33.8,30.2,87,29.56,3.0,East,17.3,29.9,N/A,Rain,Light Freezing Rain,90,2013-02-27 11:20:00
6:32 AM,33.8,30.2,87,29.55,2.5,East,18.4,31.1,N/A,Rain,Light Freezing Rain,90,2013-02-27 11:32:00
6:46 AM,33.8,32.0,93,29.55,1.8,East,13.8,31.1,N/A,Rain,Light Freezing Rain,100,2013-02-27 11:46:00
6:53 AM,33.1,32.0,96,29.60,2.0,East,18.4,29.9,N/A,Rain,Light Freezing Rain,90,2013-02-27 11:53:00
7:04 AM,33.8,32.0,93,29.54,2.0,East,20.7,27.6,N/A,Rain,Light Rain,80,2013-02-27 12:04:00
7:38 AM,33.8,32.0,93,29.53,1.8,East,16.1,27.6,N/A,Rain,Light Rain,90,2013-02-27 12:38:00
7:53 AM,34.0,32.0,92,29.58,2.0,East,16.1,32.2,N/A,Rain,Light Rain,90,2013-02-27 12:53:00
8:16 AM,33.8,33.8,100,29.53,1.2,East,16.1,31.1,N/A,,Overcast,90,2013-02-27 13:16:00
8:30 AM,33.8,33.8,100,29.52,0.5,East,15.0,28.8,N/A,Fog,Fog,100,2013-02-27 13:30:00
8:53 AM,34.0,33.1,96,29.56,0.5,East,15.0,26.5,N/A,Fog,Fog,80,2013-02-27 13:53:00
9:00 AM,33.8,33.8,100,29.51,0.2,East,16.1,28.8,N/A,Fog,Fog,100,2013-02-27 14:00:00
9:53 AM,35.1,34.0,96,29.55,0.2,East,13.8,23.0,N/A,Fog,Fog,90,2013-02-27 14:53:00
10:53 AM,36.0,35.1,97,29.55,0.2,East,8.1,-,N/A,Fog-Rain,Light Rain,90,2013-02-27 15:53:00
11:04 AM,37.4,35.6,93,29.50,0.8,East,9.2,-,N/A,Rain,Rain,100,2013-02-27 16:04:00
11:12 AM,37.4,35.6,93,29.49,1.2,East,10.4,-,N/A,Rain,Rain,100,2013-02-27 16:12:00
11:20 AM,37.4,35.6,93,29.49,1.5,East,8.1,-,N/A,Rain,Rain,90,2013-02-27 16:20:00
11:33 AM,37.4,35.6,93,29.49,1.5,East,6.9,-,N/A,Rain,Rain,100,2013-02-27 16:33:00
11:53 AM,37.0,36.0,96,29.55,1.2,East,5.8,-,N/A,Rain,Rain,90,2013-02-27 16:53:00
12:10 PM,37.4,35.6,93,29.49,2.0,East,6.9,-,N/A,Rain,Light Rain,90,2013-02-27 17:10:00
12:19 PM,37.4,37.4,100,29.49,3.0,SSE,4.6,-,N/A,Rain,Light Rain,150,2013-02-27 17:19:00
12:27 PM,37.4,35.6,93,29.51,1.8,WSW,10.4,-,N/A,Rain,Rain,250,2013-02-27 17:27:00
12:42 PM,35.6,33.8,93,29.52,3.0,West,10.4,-,N/A,Rain,Rain,280,2013-02-27 17:42:00
12:53 PM,35.1,33.1,92,29.57,4.0,WNW,9.2,-,N/A,Snow,Light Snow,290,2013-02-27 17:53:00
1:18 PM,33.8,33.8,100,29.51,3.0,WNW,6.9,-,N/A,Snow,Light Snow,300,2013-02-27 18:18:00
1:53 PM,37.0,34.0,89,29.53,10.0,NW,10.4,-,N/A,,Overcast,320,2013-02-27 18:53:00
2:01 PM,37.4,33.8,87,29.48,10.0,WNW,10.4,-,N/A,,Overcast,300,2013-02-27 19:01:00
2:53 PM,37.0,33.1,86,29.55,10.0,WNW,11.5,18.4,N/A,,Overcast,290,2013-02-27 19:53:00
3:24 PM,35.6,33.8,93,29.51,10.0,West,17.3,23.0,N/A,,Overcast,280,2013-02-27 20:24:00
3:53 PM,35.1,33.1,92,29.56,10.0,WNW,15.0,24.2,N/A,,Overcast,290,2013-02-27 20:53:00
4:00 PM,35.6,33.8,93,29.51,10.0,West,15.0,-,N/A,,Overcast,280,2013-02-27 21:00:00
4:29 PM,35.6,33.8,93,29.52,10.0,West,15.0,-,N/A,,Overcast,280,2013-02-27 21:29:00
4:44 PM,35.6,32.0,87,29.52,10.0,WNW,12.7,19.6,N/A,,Overcast,290,2013-02-27 21:44:00
4:53 PM,36.0,32.0,86,29.57,10.0,WNW,13.8,-,N/A,,Overcast,290,2013-02-27 21:53:00
5:53 PM,36.0,32.0,86,29.59,10.0,WNW,13.8,-,N/A,,Overcast,290,2013-02-27 22:53:00
6:34 PM,35.6,33.8,93,29.57,10.0,West,11.5,-,N/A,,Overcast,280,2013-02-27 23:34:00
6:53 PM,36.0,33.1,89,29.62,10.0,West,13.8,-,N/A,,Overcast,280,2013-02-27 23:53:00
7:53 PM,36.0,33.1,89,29.62,10.0,WNW,12.7,-,N/A,,Mostly Cloudy,290,2013-02-28 00:53:00
8:34 PM,35.6,33.8,93,29.59,10.0,West,9.2,-,N/A,,Overcast,280,2013-02-28 01:34:00
8:53 PM,36.0,33.1,89,29.64,-9999.0,West,11.5,-,N/A,,Overcast,280,2013-02-28 01:53:00
9:18 PM,35.6,33.8,93,29.59,-9999.0,West,10.4,-,N/A,,Overcast,270,2013-02-28 02:18:00
9:36 PM,35.6,33.8,93,29.60,7.0,West,8.1,-,N/A,,Overcast,260,2013-02-28 02:36:00
9:53 PM,36.0,34.0,93,29.63,8.0,West,6.9,-,N/A,,Overcast,270,2013-02-28 02:53:00
10:09 PM,35.6,33.8,93,29.59,10.0,West,8.1,-,N/A,,Overcast,270,2013-02-28 03:09:00
10:53 PM,36.0,33.1,89,29.62,10.0,West,8.1,-,N/A,,Overcast,280,2013-02-28 03:53:00
11:02 PM,35.6,33.8,93,29.58,10.0,West,6.9,-,N/A,,Overcast,280,2013-02-28 04:02:00
11:53 PM,36.0,33.1,89,29.60,-9999.0,WNW,8.1,-,N/A,,Overcast,290,2013-02-28 04:53:00